Location: Bennemühlen
(52.5740°N, 9.7135°E)
Time: 01:29:46
(UTC+00:00)

ASTEX 1 - Pass Details

Date: 19 May 2025
Orbit: 714 x 734 km, 92.7° (Epoch: 23 June)

Event Time Altitude Azimuth Distance (km) Brightness Sun altitude
Rises 23:16:36 0° 6° (N) 3,164 8.4 -17.4°
Reaches altitude 10° 23:18:54 10° 8° (N) 2,240 7.2 -17.4°
Maximum altitude 23:23:52 80° 95° (E) 750 3.4 -17.4°
Enters shadow 23:26:13 32° 179° (S) 1,251 4.0 -17.4°
